Time,TemperatureF,DewpointF,PressureIn,WindDirection,WindDirectionDegrees,WindSpeedMPH,WindSpeedGustMPH,Humidity,HourlyPrecipIn,Conditions,Clouds,dailyrainin,SoftwareType,DateUTC
2013-01-17 00:00:00,50.2,49.1,29.86,SSE,153,0.0,4.0,96,0.04,,,0.03,Wunderground v.1.15,2013-01-17 05:00:00,
2013-01-17 00:05:00,50.2,49.1,29.86,SSE,153,0.0,4.0,96,0.04,,,0.04,Wunderground v.1.15,2013-01-17 05:05:00,
2013-01-17 00:10:00,50.3,49.2,29.86,SSE,153,0.0,4.0,96,0.04,,,0.04,Wunderground v.1.15,2013-01-17 05:10:00,
2013-01-17 00:15:00,50.3,49.2,29.86,South,171,0.0,4.0,96,0.04,,,0.04,Wunderground v.1.15,2013-01-17 05:15:00,
2013-01-17 00:20:00,50.4,49.3,29.86,South,170,0.0,4.0,96,0.04,,,0.05,Wunderground v.1.15,2013-01-17 05:20:00,
2013-01-17 00:30:00,50.4,49.3,29.86,South,171,0.0,0.0,96,0.06,,,0.06,Wunderground v.1.15,2013-01-17 05:30:00,
2013-01-17 00:35:00,50.4,49.3,29.86,South,170,0.0,0.0,96,0.12,,,0.07,Wunderground v.1.15,2013-01-17 05:35:00,
2013-01-17 00:40:00,50.5,49.4,29.86,South,170,0.0,0.0,96,0.07,,,0.07,Wunderground v.1.15,2013-01-17 05:40:00,
2013-01-17 00:45:00,50.6,49.5,29.86,South,170,0.0,0.0,96,0.04,,,0.07,Wunderground v.1.15,2013-01-17 05:45:00,
2013-01-17 00:50:00,50.6,49.5,29.86,South,170,0.0,0.0,96,0.00,,,0.07,Wunderground v.1.15,2013-01-17 05:50:00,
2013-01-17 00:55:00,50.6,49.5,29.86,South,170,0.0,0.0,96,0.00,,,0.08,Wunderground v.1.15,2013-01-17 05:55:00,
2013-01-17 01:00:00,50.7,49.6,29.86,South,170,0.0,0.0,96,0.00,,,0.08,Wunderground v.1.15,2013-01-17 06:00:00,
2013-01-17 01:10:00,50.8,49.7,29.86,South,171,0.0,0.0,96,0.00,,,0.08,Wunderground v.1.15,2013-01-17 06:10:00,
2013-01-17 01:15:00,50.9,49.8,29.86,South,170,0.0,0.0,96,0.00,,,0.08,Wunderground v.1.15,2013-01-17 06:15:00,
2013-01-17 01:20:00,51.0,49.9,29.86,South,170,0.0,0.0,96,0.00,,,0.08,Wunderground v.1.15,2013-01-17 06:20:00,
2013-01-17 01:25:00,51.0,49.9,29.86,South,171,0.0,0.0,96,0.00,,,0.08,Wunderground v.1.15,2013-01-17 06:25:00,
2013-01-17 01:30:00,51.0,49.9,29.87,South,170,0.0,0.0,96,0.00,,,0.09,Wunderground v.1.15,2013-01-17 06:30:00,
2013-01-17 01:35:00,51.0,49.9,29.87,South,170,0.0,0.0,96,0.00,,,0.09,Wunderground v.1.15,2013-01-17 06:35:00,
2013-01-17 01:45:00,51.1,50.0,29.87,SSE,152,0.0,2.0,96,0.00,,,0.09,Wunderground v.1.15,2013-01-17 06:45:00,
2013-01-17 01:50:00,51.1,50.0,29.87,SE,134,0.0,2.0,96,0.00,,,0.09,Wunderground v.1.15,2013-01-17 06:50:00,
2013-01-17 01:55:00,51.1,50.0,29.87,NE,34,1.0,2.0,96,0.00,,,0.09,Wunderground v.1.15,2013-01-17 06:55:00,
2013-01-17 02:00:00,51.1,50.0,29.87,North,360,2.0,2.0,96,0.00,,,0.10,Wunderground v.1.15,2013-01-17 07:00:00,
2013-01-17 02:05:00,51.1,50.0,29.87,North,355,2.0,2.0,96,0.00,,,0.10,Wunderground v.1.15,2013-01-17 07:05:00,
2013-01-17 02:10:00,51.1,50.0,29.87,North,355,1.0,1.0,96,0.00,,,0.10,Wunderground v.1.15,2013-01-17 07:10:00,
2013-01-17 02:20:00,51.1,50.0,29.86,NNE,19,2.0,2.0,96,0.10,,,0.12,Wunderground v.1.15,2013-01-17 07:20:00,
2013-01-17 02:25:00,51.0,49.9,29.87,North,5,2.0,2.0,96,0.07,,,0.12,Wunderground v.1.15,2013-01-17 07:25:00,
2013-01-17 02:30:00,51.0,49.9,29.87,NNE,17,1.0,1.0,96,0.06,,,0.13,Wunderground v.1.15,2013-01-17 07:30:00,
2013-01-17 02:35:00,51.0,49.9,29.86,North,360,2.0,2.0,96,0.06,,,0.13,Wunderground v.1.15,2013-01-17 07:35:00,
2013-01-17 02:40:00,50.9,49.8,29.87,NNW,331,3.0,3.0,96,0.05,,,0.13,Wunderground v.1.15,2013-01-17 07:40:00,
2013-01-17 02:50:00,50.8,49.7,29.87,North,11,2.0,2.0,96,0.04,,,0.14,Wunderground v.1.15,2013-01-17 07:50:00,
2013-01-17 02:55:00,50.7,49.6,29.87,NNW,347,2.0,2.0,96,0.05,,,0.15,Wunderground v.1.15,2013-01-17 07:55:00,
2013-01-17 03:00:00,50.6,49.5,29.87,NNE,20,2.0,2.0,96,0.05,,,0.15,Wunderground v.1.15,2013-01-17 08:00:00,
2013-01-17 03:05:00,50.6,49.5,29.87,WNW,296,1.0,3.0,96,0.05,,,0.15,Wunderground v.1.15,2013-01-17 08:05:00,
2013-01-17 03:10:00,50.6,49.5,29.86,NNE,19,1.0,2.0,96,0.04,,,0.15,Wunderground v.1.15,2013-01-17 08:10:00,
2013-01-17 03:15:00,50.6,49.5,29.87,NNE,15,1.0,2.0,96,0.00,,,0.15,Wunderground v.1.15,2013-01-17 08:15:00,
2013-01-17 03:25:00,50.6,49.5,29.86,North,350,0.0,1.0,96,0.00,,,0.16,Wunderground v.1.15,2013-01-17 08:25:00,
2013-01-17 03:30:00,50.5,49.4,29.86,North,350,0.0,1.0,96,0.00,,,0.16,Wunderground v.1.15,2013-01-17 08:30:00,
2013-01-17 03:35:00,50.5,49.4,29.85,North,350,0.0,1.0,96,0.00,,,0.16,Wunderground v.1.15,2013-01-17 08:35:00,
2013-01-17 03:40:00,50.5,49.4,29.85,North,350,0.0,1.0,96,0.00,,,0.16,Wunderground v.1.15,2013-01-17 08:40:00,
2013-01-17 03:45:00,50.5,49.4,29.85,North,350,0.0,1.0,96,0.00,,,0.16,Wunderground v.1.15,2013-01-17 08:45:00,
2013-01-17 03:55:00,50.5,49.4,29.85,North,350,0.0,1.0,96,0.00,,,0.17,Wunderground v.1.15,2013-01-17 08:55:00,
2013-01-17 04:00:00,50.5,49.4,29.85,North,350,0.0,1.0,96,0.00,,,0.17,Wunderground v.1.15,2013-01-17 09:00:00,
2013-01-17 04:05:00,50.6,49.5,29.85,North,9,0.0,1.0,96,0.00,,,0.17,Wunderground v.1.15,2013-01-17 09:05:00,
2013-01-17 04:10:00,50.6,49.5,29.85,North,9,0.0,1.0,96,0.00,,,0.17,Wunderground v.1.15,2013-01-17 09:10:00,
2013-01-17 04:15:00,50.6,49.5,29.85,North,9,0.0,1.0,96,0.00,,,0.17,Wunderground v.1.15,2013-01-17 09:15:00,
2013-01-17 04:20:00,50.6,49.5,29.85,North,9,0.0,1.0,96,0.00,,,0.17,Wunderground v.1.15,2013-01-17 09:20:00,
2013-01-17 04:25:00,50.6,49.5,29.84,North,9,0.0,1.0,96,0.00,,,0.17,Wunderground v.1.15,2013-01-17 09:25:00,
2013-01-17 04:30:00,50.7,49.6,29.84,North,9,1.0,1.0,96,0.00,,,0.17,Wunderground v.1.15,2013-01-17 09:30:00,
2013-01-17 04:35:00,50.7,49.6,29.85,North,9,0.0,1.0,96,0.00,,,0.17,Wunderground v.1.15,2013-01-17 09:35:00,
2013-01-17 04:40:00,50.6,49.5,29.84,North,9,0.0,1.0,96,0.00,,,0.17,Wunderground v.1.15,2013-01-17 09:40:00,
2013-01-17 04:45:00,50.6,49.5,29.84,North,9,0.0,2.0,96,0.00,,,0.17,Wunderground v.1.15,2013-01-17 09:45:00,
2013-01-17 04:55:00,50.6,49.5,29.84,NNE,12,1.0,3.0,96,0.00,,,0.17,Wunderground v.1.15,2013-01-17 09:55:00,
2013-01-17 05:00:00,50.6,49.5,29.84,NNE,32,1.0,1.0,96,0.00,,,0.17,Wunderground v.1.15,2013-01-17 10:00:00,
2013-01-17 05:05:00,50.5,49.4,29.84,North,5,1.0,1.0,96,0.00,,,0.17,Wunderground v.1.15,2013-01-17 10:05:00,
2013-01-17 05:10:00,50.6,49.5,29.84,North,5,1.0,3.0,96,0.00,,,0.17,Wunderground v.1.15,2013-01-17 10:10:00,
2013-01-17 05:15:00,50.5,49.4,29.85,NNW,345,2.0,3.0,96,0.00,,,0.17,Wunderground v.1.15,2013-01-17 10:15:00,
2013-01-17 05:25:00,50.4,49.3,29.86,North,5,3.0,3.0,96,0.08,,,0.19,Wunderground v.1.15,2013-01-17 10:25:00,
2013-01-17 05:30:00,50.3,49.2,29.86,NNE,19,3.0,3.0,96,0.21,,,0.21,Wunderground v.1.15,2013-01-17 10:30:00,
2013-01-17 05:35:00,50.3,49.2,29.86,North,360,3.0,3.0,96,0.17,,,0.22,Wunderground v.1.15,2013-01-17 10:35:00,
2013-01-17 05:40:00,50.2,49.1,29.86,NE,38,3.0,3.0,96,0.25,,,0.24,Wunderground v.1.15,2013-01-17 10:40:00,
2013-01-17 05:45:00,50.2,49.1,29.86,North,351,2.0,3.0,96,0.12,,,0.25,Wunderground v.1.15,2013-01-17 10:45:00,
2013-01-17 05:50:00,50.1,49.0,29.86,NNE,15,3.0,3.0,96,0.42,,,0.28,Wunderground v.1.15,2013-01-17 10:50:00,
2013-01-17 05:55:00,50.1,49.0,29.87,NNW,346,3.0,3.0,96,0.18,,,0.29,Wunderground v.1.15,2013-01-17 10:55:00,
2013-01-17 06:05:00,50.0,48.9,29.87,NNW,348,3.0,3.0,96,0.10,,,0.31,Wunderground v.1.15,2013-01-17 11:05:00,
2013-01-17 06:10:00,50.0,48.9,29.88,NNE,20,3.0,4.0,96,0.07,,,0.31,Wunderground v.1.15,2013-01-17 11:10:00,
2013-01-17 06:15:00,49.9,48.8,29.88,North,5,2.0,4.0,96,0.04,,,0.31,Wunderground v.1.15,2013-01-17 11:15:00,
2013-01-17 06:20:00,49.9,48.8,29.87,North,5,2.0,2.0,96,0.04,,,0.32,Wunderground v.1.15,2013-01-17 11:20:00,
2013-01-17 06:30:00,49.8,48.7,29.88,NE,35,2.0,2.0,96,0.04,,,0.32,Wunderground v.1.15,2013-01-17 11:30:00,
2013-01-17 06:40:00,49.7,48.6,29.88,NNE,32,2.0,2.0,96,0.00,,,0.32,Wunderground v.1.15,2013-01-17 11:40:00,
2013-01-17 06:45:00,49.6,48.5,29.88,NNE,22,3.0,4.0,96,0.00,,,0.32,Wunderground v.1.15,2013-01-17 11:45:00,
2013-01-17 06:50:00,49.6,48.5,29.89,NNE,13,3.0,3.0,96,0.00,,,0.33,Wunderground v.1.15,2013-01-17 11:50:00,
2013-01-17 06:55:00,49.5,48.4,29.89,NE,40,3.0,3.0,96,0.00,,,0.33,Wunderground v.1.15,2013-01-17 11:55:00,
2013-01-17 07:00:00,49.5,48.4,29.89,NE,42,3.0,3.0,96,0.00,,,0.33,Wunderground v.1.15,2013-01-17 12:00:00,
2013-01-17 07:10:00,49.4,48.3,29.90,NNE,25,2.0,2.0,96,0.00,,,0.33,Wunderground v.1.15,2013-01-17 12:10:00,
2013-01-17 07:15:00,49.4,48.3,29.89,NE,39,2.0,3.0,96,0.00,,,0.33,Wunderground v.1.15,2013-01-17 12:15:00,
2013-01-17 07:20:00,49.3,48.2,29.90,North,360,2.0,4.0,96,0.00,,,0.33,Wunderground v.1.15,2013-01-17 12:20:00,
2013-01-17 07:25:00,49.3,48.2,29.90,NNE,30,3.0,5.0,96,0.00,,,0.33,Wunderground v.1.15,2013-01-17 12:25:00,
2013-01-17 07:30:00,49.3,48.2,29.89,NE,46,2.0,2.0,96,0.00,,,0.33,Wunderground v.1.15,2013-01-17 12:30:00,
2013-01-17 07:35:00,49.3,48.2,29.89,ENE,65,2.0,3.0,96,0.00,,,0.33,Wunderground v.1.15,2013-01-17 12:35:00,
2013-01-17 07:45:00,49.3,48.2,29.90,NE,39,3.0,5.0,96,0.00,,,0.34,Wunderground v.1.15,2013-01-17 12:45:00,
2013-01-17 07:50:00,49.3,48.2,29.89,NE,47,2.0,2.0,96,0.00,,,0.34,Wunderground v.1.15,2013-01-17 12:50:00,
2013-01-17 07:55:00,49.4,48.3,29.89,ENE,65,2.0,3.0,96,0.00,,,0.34,Wunderground v.1.15,2013-01-17 12:55:00,
2013-01-17 08:00:00,49.4,48.3,29.90,ENE,63,2.0,3.0,96,0.00,,,0.34,Wunderground v.1.15,2013-01-17 13:00:00,
2013-01-17 08:05:00,49.4,48.3,29.90,ENE,71,2.0,3.0,96,0.00,,,0.34,Wunderground v.1.15,2013-01-17 13:05:00,
2013-01-17 08:15:00,49.6,48.5,29.90,ENE,72,3.0,5.0,96,0.00,,,0.34,Wunderground v.1.15,2013-01-17 13:15:00,
2013-01-17 08:20:00,49.7,48.6,29.90,ENE,73,4.0,4.0,96,0.00,,,0.34,Wunderground v.1.15,2013-01-17 13:20:00,
2013-01-17 08:30:00,49.9,48.8,29.90,NE,55,3.0,3.0,96,0.00,,,0.34,Wunderground v.1.15,2013-01-17 13:30:00,
2013-01-17 08:35:00,50.0,48.9,29.91,ENE,75,2.0,3.0,96,0.00,,,0.35,Wunderground v.1.15,2013-01-17 13:35:00,
2013-01-17 08:40:00,50.0,48.9,29.91,ENE,63,2.0,2.0,96,0.00,,,0.35,Wunderground v.1.15,2013-01-17 13:40:00,
2013-01-17 08:50:00,50.1,49.0,29.92,NNE,27,2.0,2.0,96,0.00,,,0.35,Wunderground v.1.15,2013-01-17 13:50:00,
2013-01-17 08:55:00,50.1,49.0,29.92,NNE,32,1.0,2.0,96,0.00,,,0.35,Wunderground v.1.15,2013-01-17 13:55:00,
2013-01-17 09:00:00,50.1,49.0,29.92,NNE,24,1.0,2.0,96,0.00,,,0.35,Wunderground v.1.15,2013-01-17 14:00:00,
2013-01-17 09:05:00,50.2,49.1,29.92,NNE,33,2.0,3.0,96,0.00,,,0.35,Wunderground v.1.15,2013-01-17 14:05:00,
2013-01-17 09:10:00,50.3,49.2,29.92,NE,36,3.0,3.0,96,0.00,,,0.36,Wunderground v.1.15,2013-01-17 14:10:00,
2013-01-17 09:15:00,50.3,49.2,29.92,NNE,24,3.0,3.0,96,0.00,,,0.36,Wunderground v.1.15,2013-01-17 14:15:00,
2013-01-17 09:25:00,50.3,49.2,29.93,NNE,19,3.0,6.0,96,0.04,,,0.37,Wunderground v.1.15,2013-01-17 14:25:00,
2013-01-17 09:30:00,50.3,49.2,29.93,NNE,33,3.0,3.0,96,0.04,,,0.37,Wunderground v.1.15,2013-01-17 14:30:00,
2013-01-17 09:35:00,50.4,49.3,29.93,NE,40,2.0,3.0,96,0.07,,,0.38,Wunderground v.1.15,2013-01-17 14:35:00,
2013-01-17 09:40:00,50.4,49.3,29.93,NNE,28,2.0,2.0,96,0.07,,,0.38,Wunderground v.1.15,2013-01-17 14:40:00,
2013-01-17 09:45:00,50.5,49.4,29.92,NE,44,2.0,2.0,96,0.07,,,0.39,Wunderground v.1.15,2013-01-17 14:45:00,
2013-01-17 09:55:00,50.6,49.5,29.92,NNE,32,2.0,3.0,96,0.04,,,0.39,Wunderground v.1.15,2013-01-17 14:55:00,
2013-01-17 10:05:00,50.8,49.7,29.92,NNE,28,2.0,3.0,96,0.00,,,0.39,Wunderground v.1.15,2013-01-17 15:05:00,
2013-01-17 10:10:00,50.8,49.7,29.92,NNE,28,2.0,9.0,96,0.00,,,0.39,Wunderground v.1.15,2013-01-17 15:10:00,
2013-01-17 10:15:00,50.8,49.7,29.92,NE,44,3.0,9.0,96,0.00,,,0.39,Wunderground v.1.15,2013-01-17 15:15:00,
2013-01-17 10:20:00,50.7,49.6,29.92,ENE,64,3.0,3.0,96,0.00,,,0.39,Wunderground v.1.15,2013-01-17 15:20:00,
2013-01-17 10:30:00,50.7,49.6,29.92,NE,55,3.0,3.0,96,0.00,,,0.39,Wunderground v.1.15,2013-01-17 15:30:00,
2013-01-17 10:35:00,50.6,49.5,29.91,NE,46,2.0,9.0,96,0.00,,,0.39,Wunderground v.1.15,2013-01-17 15:35:00,
2013-01-17 10:45:00,50.7,49.6,29.91,NE,40,3.0,3.0,96,0.00,,,0.39,Wunderground v.1.15,2013-01-17 15:45:00,
2013-01-17 10:50:00,50.7,49.6,29.91,NE,51,2.0,9.0,96,0.00,,,0.39,Wunderground v.1.15,2013-01-17 15:50:00,
2013-01-17 11:00:00,50.7,49.6,29.91,NE,53,3.0,9.0,96,0.00,,,0.39,Wunderground v.1.15,2013-01-17 16:00:00,
2013-01-17 11:05:00,50.7,49.6,29.90,NE,37,4.0,9.0,96,0.00,,,0.39,Wunderground v.1.15,2013-01-17 16:05:00,
2013-01-17 11:10:00,50.6,49.5,29.90,NE,54,5.0,9.0,96,0.00,,,0.39,Wunderground v.1.15,2013-01-17 16:10:00,
2013-01-17 11:15:00,50.6,49.5,29.90,NE,47,5.0,9.0,96,0.00,,,0.40,Wunderground v.1.15,2013-01-17 16:15:00,
2013-01-17 11:20:00,50.6,49.5,29.90,NE,53,4.0,9.0,96,0.00,,,0.40,Wunderground v.1.15,2013-01-17 16:20:00,
2013-01-17 11:30:00,50.4,49.0,29.91,NE,51,4.0,5.0,95,0.00,,,0.40,Wunderground v.1.15,2013-01-17 16:30:00,
2013-01-17 11:35:00,50.4,49.0,29.91,NNE,24,4.0,5.0,95,0.00,,,0.40,Wunderground v.1.15,2013-01-17 16:35:00,
2013-01-17 11:40:00,50.3,48.9,29.90,NE,44,3.0,3.0,95,0.00,,,0.40,Wunderground v.1.15,2013-01-17 16:40:00,
2013-01-17 11:45:00,50.3,48.9,29.89,NE,52,3.0,3.0,95,0.00,,,0.40,Wunderground v.1.15,2013-01-17 16:45:00,
2013-01-17 11:50:00,50.2,48.8,29.89,NNE,33,3.0,4.0,95,0.00,,,0.40,Wunderground v.1.15,2013-01-17 16:50:00,
2013-01-17 11:55:00,50.1,48.7,29.89,ENE,61,3.0,4.0,95,0.00,,,0.40,Wunderground v.1.15,2013-01-17 16:55:00,
2013-01-17 12:00:00,50.1,48.7,29.88,NE,48,3.0,3.0,95,0.00,,,0.40,Wunderground v.1.15,2013-01-17 17:00:00,
2013-01-17 12:10:00,50.1,48.7,29.87,ENE,76,4.0,4.0,95,0.00,,,0.40,Wunderground v.1.15,2013-01-17 17:10:00,
2013-01-17 12:15:00,50.0,48.6,29.87,NW,320,4.0,4.0,95,0.00,,,0.40,Wunderground v.1.15,2013-01-17 17:15:00,
2013-01-17 12:20:00,50.0,48.6,29.86,NE,35,3.0,3.0,95,0.00,,,0.40,Wunderground v.1.15,2013-01-17 17:20:00,
2013-01-17 12:25:00,50.1,48.7,29.86,ENE,61,3.0,4.0,95,0.00,,,0.40,Wunderground v.1.15,2013-01-17 17:25:00,
2013-01-17 12:30:00,50.0,48.6,29.86,NW,305,3.0,3.0,95,0.00,,,0.40,Wunderground v.1.15,2013-01-17 17:30:00,
2013-01-17 12:40:00,49.9,48.5,29.85,ENE,75,4.0,8.0,95,0.00,,,0.40,Wunderground v.1.15,2013-01-17 17:40:00,
2013-01-17 12:45:00,50.0,48.6,29.84,ENE,71,4.0,8.0,95,0.00,,,0.40,Wunderground v.1.15,2013-01-17 17:45:00,
2013-01-17 12:50:00,49.9,48.5,29.85,NNE,13,4.0,7.0,95,0.00,,,0.40,Wunderground v.1.15,2013-01-17 17:50:00,
2013-01-17 12:55:00,49.9,48.5,29.84,ENE,74,5.0,7.0,95,0.00,,,0.40,Wunderground v.1.15,2013-01-17 17:55:00,
2013-01-17 13:00:00,49.8,48.4,29.84,NE,46,5.0,5.0,95,0.00,,,0.40,Wunderground v.1.15,2013-01-17 18:00:00,
2013-01-17 13:10:00,49.8,48.4,29.83,East,87,4.0,11.0,95,0.00,,,0.40,Wunderground v.1.15,2013-01-17 18:10:00,
2013-01-17 13:15:00,49.8,48.4,29.83,NE,53,5.0,11.0,95,0.00,,,0.40,Wunderground v.1.15,2013-01-17 18:15:00,
2013-01-17 13:20:00,49.8,48.4,29.83,ENE,59,5.0,5.0,95,0.00,,,0.40,Wunderground v.1.15,2013-01-17 18:20:00,
2013-01-17 13:25:00,49.8,48.4,29.83,East,81,4.0,11.0,95,0.00,,,0.40,Wunderground v.1.15,2013-01-17 18:25:00,
2013-01-17 13:30:00,49.7,48.3,29.82,ENE,61,4.0,11.0,95,0.00,,,0.40,Wunderground v.1.15,2013-01-17 18:30:00,
2013-01-17 13:35:00,49.7,48.3,29.82,ENE,62,4.0,11.0,95,0.00,,,0.40,Wunderground v.1.15,2013-01-17 18:35:00,
2013-01-17 13:45:00,49.6,48.2,29.82,NNE,28,3.0,11.0,95,0.00,,,0.40,Wunderground v.1.15,2013-01-17 18:45:00,
2013-01-17 13:50:00,49.5,48.1,29.82,ENE,74,4.0,11.0,95,0.00,,,0.40,Wunderground v.1.15,2013-01-17 18:50:00,
2013-01-17 13:55:00,49.4,48.0,29.82,NE,41,4.0,11.0,95,0.00,,,0.40,Wunderground v.1.15,2013-01-17 18:55:00,
2013-01-17 14:05:00,49.3,47.9,29.82,NNE,26,3.0,11.0,95,0.00,,,0.40,Wunderground v.1.15,2013-01-17 19:05:00,
2013-01-17 14:15:00,49.1,47.7,29.82,NE,41,4.0,11.0,95,0.00,,,0.40,Wunderground v.1.15,2013-01-17 19:15:00,
2013-01-17 14:20:00,49.0,47.6,29.81,NE,41,4.0,11.0,95,0.00,,,0.40,Wunderground v.1.15,2013-01-17 19:20:00,
2013-01-17 14:30:00,48.7,47.3,29.82,NE,40,5.0,5.0,95,0.00,,,0.40,Wunderground v.1.15,2013-01-17 19:30:00,
2013-01-17 14:35:00,48.5,47.1,29.81,ENE,64,5.0,7.0,95,0.00,,,0.40,Wunderground v.1.15,2013-01-17 19:35:00,
2013-01-17 14:40:00,48.3,46.9,29.82,NE,35,5.0,6.0,95,0.00,,,0.40,Wunderground v.1.15,2013-01-17 19:40:00,
2013-01-17 14:50:00,47.9,46.5,29.81,NE,35,6.0,9.0,95,0.00,,,0.40,Wunderground v.1.15,2013-01-17 19:50:00,
2013-01-17 15:00:00,47.6,46.2,29.81,ENE,67,6.0,9.0,95,0.00,,,0.40,Wunderground v.1.15,2013-01-17 20:00:00,
2013-01-17 15:05:00,47.4,46.0,29.81,NE,38,5.0,9.0,95,0.00,,,0.40,Wunderground v.1.15,2013-01-17 20:05:00,
2013-01-17 15:10:00,47.2,45.8,29.81,ENE,57,5.0,5.0,95,0.00,,,0.41,Wunderground v.1.15,2013-01-17 20:10:00,
2013-01-17 15:15:00,47.1,45.7,29.81,ENE,57,6.0,8.0,95,0.00,,,0.41,Wunderground v.1.15,2013-01-17 20:15:00,
2013-01-17 15:25:00,46.8,45.4,29.81,ENE,76,8.0,8.0,95,0.00,,,0.41,Wunderground v.1.15,2013-01-17 20:25:00,
2013-01-17 15:30:00,46.8,45.4,29.81,East,88,9.0,9.0,95,0.00,,,0.41,Wunderground v.1.15,2013-01-17 20:30:00,
2013-01-17 15:35:00,46.7,45.3,29.82,NE,52,7.0,9.0,95,0.00,,,0.41,Wunderground v.1.15,2013-01-17 20:35:00,
2013-01-17 15:40:00,46.6,45.2,29.81,ENE,75,6.0,10.0,95,0.00,,,0.41,Wunderground v.1.15,2013-01-17 20:40:00,
2013-01-17 15:45:00,46.5,45.1,29.82,ENE,69,7.0,10.0,95,0.00,,,0.41,Wunderground v.1.15,2013-01-17 20:45:00,
2013-01-17 15:55:00,46.3,44.9,29.82,ENE,61,7.0,9.0,95,0.00,,,0.41,Wunderground v.1.15,2013-01-17 20:55:00,
2013-01-17 16:00:00,46.2,44.8,29.82,ENE,74,6.0,12.0,95,0.00,,,0.42,Wunderground v.1.15,2013-01-17 21:00:00,
2013-01-17 16:05:00,46.1,44.7,29.82,NE,43,6.0,12.0,95,0.00,,,0.42,Wunderground v.1.15,2013-01-17 21:05:00,
2013-01-17 16:10:00,46.0,44.6,29.82,ENE,71,7.0,10.0,95,0.00,,,0.42,Wunderground v.1.15,2013-01-17 21:10:00,
2013-01-17 16:15:00,45.8,44.4,29.83,East,79,7.0,10.0,95,0.00,,,0.42,Wunderground v.1.15,2013-01-17 21:15:00,
2013-01-17 16:25:00,45.1,43.5,29.82,NE,40,8.0,10.0,94,0.00,,,0.42,Wunderground v.1.15,2013-01-17 21:25:00,
2013-01-17 16:30:00,44.8,43.2,29.82,ENE,72,8.0,10.0,94,0.00,,,0.42,Wunderground v.1.15,2013-01-17 21:30:00,
2013-01-17 16:35:00,44.5,42.9,29.83,East,82,8.0,10.0,94,0.00,,,0.42,Wunderground v.1.15,2013-01-17 21:35:00,
2013-01-17 16:40:00,44.4,42.8,29.84,ENE,63,9.0,12.0,94,0.00,,,0.42,Wunderground v.1.15,2013-01-17 21:40:00,
2013-01-17 16:50:00,44.0,42.4,29.83,NE,44,7.0,10.0,94,0.00,,,0.43,Wunderground v.1.15,2013-01-17 21:50:00,
2013-01-17 17:00:00,43.6,41.7,29.84,ENE,57,8.0,13.0,93,0.00,,,0.43,Wunderground v.1.15,2013-01-17 22:00:00,
2013-01-17 17:05:00,43.5,41.6,29.84,East,99,8.0,15.0,93,0.00,,,0.43,Wunderground v.1.15,2013-01-17 22:05:00,
2013-01-17 17:10:00,43.4,41.8,29.84,East,86,8.0,8.0,94,0.00,,,0.43,Wunderground v.1.15,2013-01-17 22:10:00,
2013-01-17 17:15:00,43.3,41.7,29.83,NE,49,6.0,10.0,94,0.00,,,0.43,Wunderground v.1.15,2013-01-17 22:15:00,
2013-01-17 17:20:00,43.1,41.5,29.83,NE,51,6.0,6.0,94,0.00,,,0.43,Wunderground v.1.15,2013-01-17 22:20:00,
2013-01-17 17:25:00,43.0,41.4,29.84,ENE,57,8.0,9.0,94,0.00,,,0.43,Wunderground v.1.15,2013-01-17 22:25:00,
2013-01-17 17:35:00,42.8,41.2,29.84,NE,35,6.0,8.0,94,0.00,,,0.43,Wunderground v.1.15,2013-01-17 22:35:00,
2013-01-17 17:40:00,42.8,41.5,29.83,ENE,74,7.0,9.0,95,0.00,,,0.44,Wunderground v.1.15,2013-01-17 22:40:00,
2013-01-17 17:45:00,42.7,41.4,29.83,ENE,65,8.0,9.0,95,0.00,,,0.44,Wunderground v.1.15,2013-01-17 22:45:00,
2013-01-17 17:50:00,42.7,41.1,29.83,NE,46,8.0,8.0,94,0.00,,,0.44,Wunderground v.1.15,2013-01-17 22:50:00,
2013-01-17 17:55:00,42.6,41.0,29.83,ENE,72,7.0,8.0,94,0.00,,,0.44,Wunderground v.1.15,2013-01-17 22:55:00,
2013-01-17 18:00:00,42.6,41.3,29.83,NE,36,6.0,6.0,95,0.00,,,0.44,Wunderground v.1.15,2013-01-17 23:00:00,
2013-01-17 18:10:00,42.6,41.3,29.83,NNE,32,5.0,7.0,95,0.00,,,0.44,Wunderground v.1.15,2013-01-17 23:10:00,
2013-01-17 18:15:00,42.6,41.3,29.85,NE,42,6.0,7.0,95,0.00,,,0.45,Wunderground v.1.15,2013-01-17 23:15:00,
2013-01-17 18:25:00,42.4,40.8,29.85,NE,35,7.0,8.0,94,0.12,,,0.46,Wunderground v.1.15,2013-01-17 23:25:00,
2013-01-17 18:30:00,42.2,40.6,29.86,NNE,24,7.0,7.0,94,0.16,,,0.48,Wunderground v.1.15,2013-01-17 23:30:00,
2013-01-17 18:40:00,40.8,38.9,29.87,NE,51,9.0,9.0,93,0.15,,,0.51,Wunderground v.1.15,2013-01-17 23:40:00,
2013-01-17 18:45:00,40.3,38.4,29.86,NE,46,9.0,9.0,93,0.17,,,0.52,Wunderground v.1.15,2013-01-17 23:45:00,
2013-01-17 18:50:00,40.0,38.1,29.88,NNE,24,7.0,7.0,93,0.22,,,0.54,Wunderground v.1.15,2013-01-17 23:50:00,
2013-01-17 18:55:00,39.8,38.2,29.91,NNE,12,6.0,7.0,94,0.15,,,0.56,Wunderground v.1.15,2013-01-17 23:55:00,
2013-01-17 19:00:00,39.7,38.1,29.90,NE,46,6.0,6.0,94,0.14,,,0.57,Wunderground v.1.15,2013-01-18 00:00:00,
2013-01-17 19:05:00,39.5,37.9,29.86,NNE,32,7.0,10.0,94,0.13,,,0.58,Wunderground v.1.15,2013-01-18 00:05:00,
2013-01-17 19:15:00,39.1,37.5,29.89,NNE,28,7.0,21.0,94,0.12,,,0.60,Wunderground v.1.15,2013-01-18 00:15:00,
2013-01-17 19:20:00,39.1,37.5,29.89,NNE,30,6.0,6.0,94,0.11,,,0.61,Wunderground v.1.15,2013-01-18 00:20:00,
2013-01-17 19:25:00,39.0,37.4,29.86,NNE,25,6.0,7.0,94,0.10,,,0.62,Wunderground v.1.15,2013-01-18 00:25:00,
2013-01-17 19:30:00,38.9,37.3,29.86,NE,38,7.0,7.0,94,0.09,,,0.63,Wunderground v.1.15,2013-01-18 00:30:00,
2013-01-17 19:40:00,38.8,37.2,29.86,NNE,27,6.0,21.0,94,0.11,,,0.65,Wunderground v.1.15,2013-01-18 00:40:00,
2013-01-17 19:45:00,38.8,37.2,29.84,NE,51,6.0,21.0,94,0.12,,,0.66,Wunderground v.1.15,2013-01-18 00:45:00,
2013-01-17 19:50:00,38.8,37.2,29.85,NE,38,7.0,21.0,94,0.12,,,0.67,Wunderground v.1.15,2013-01-18 00:50:00,
2013-01-17 19:55:00,38.7,37.1,29.86,NE,45,7.0,21.0,94,0.15,,,0.68,Wunderground v.1.15,2013-01-18 00:55:00,
2013-01-17 20:00:00,38.7,37.1,29.86,NW,315,6.0,21.0,94,0.29,,,0.70,Wunderground v.1.15,2013-01-18 01:00:00,
2013-01-17 20:05:00,38.7,37.4,29.85,NE,42,6.0,21.0,95,0.30,,,0.72,Wunderground v.1.15,2013-01-18 01:05:00,
2013-01-17 20:10:00,38.6,37.3,29.85,NE,53,7.0,7.0,95,0.23,,,0.74,Wunderground v.1.15,2013-01-18 01:10:00,
2013-01-17 20:20:00,38.6,37.3,29.84,ENE,57,7.0,21.0,95,0.14,,,0.77,Wunderground v.1.15,2013-01-18 01:20:00,
2013-01-17 20:30:00,38.4,37.1,29.84,ENE,67,8.0,8.0,95,0.20,,,0.80,Wunderground v.1.15,2013-01-18 01:30:00,
2013-01-17 20:35:00,38.3,37.0,29.84,NNE,30,8.0,8.0,95,0.12,,,0.81,Wunderground v.1.15,2013-01-18 01:35:00,
2013-01-17 20:40:00,38.2,36.9,29.87,NNW,331,6.0,6.0,95,0.19,,,0.82,Wunderground v.1.15,2013-01-18 01:40:00,
2013-01-17 20:45:00,38.2,36.9,29.90,NNW,342,5.0,6.0,95,0.17,,,0.84,Wunderground v.1.15,2013-01-18 01:45:00,
2013-01-17 20:55:00,37.7,36.4,29.87,NNE,32,6.0,9.0,95,0.13,,,0.86,Wunderground v.1.15,2013-01-18 01:55:00,
2013-01-17 21:00:00,37.1,35.5,29.85,NNE,32,8.0,8.0,94,0.20,,,0.88,Wunderground v.1.15,2013-01-18 02:00:00,
2013-01-17 21:05:00,36.6,35.0,29.83,NNE,22,8.0,10.0,94,0.17,,,0.89,Wunderground v.1.15,2013-01-18 02:05:00,
2013-01-17 21:10:00,36.1,34.5,29.84,NNE,22,8.0,11.0,94,0.18,,,0.91,Wunderground v.1.15,2013-01-18 02:10:00,
2013-01-17 21:15:00,35.7,34.1,29.84,NNE,32,8.0,11.0,94,0.24,,,0.93,Wunderground v.1.15,2013-01-18 02:15:00,
2013-01-17 21:25:00,35.1,33.5,29.87,NNE,31,6.0,7.0,94,0.19,,,0.97,Wunderground v.1.15,2013-01-18 02:25:00,
2013-01-17 21:30:00,34.9,33.3,29.90,NNE,29,5.0,5.0,94,0.13,,,0.98,Wunderground v.1.15,2013-01-18 02:30:00,
2013-01-17 21:35:00,34.8,33.2,29.89,NNE,30,5.0,9.0,94,0.08,,,0.99,Wunderground v.1.15,2013-01-18 02:35:00,
2013-01-17 21:40:00,34.7,33.2,29.90,North,355,6.0,7.0,94,0.09,,,1.00,Wunderground v.1.15,2013-01-18 02:40:00,
2013-01-17 21:45:00,34.5,33.0,29.90,ENE,60,5.0,7.0,94,0.09,,,1.00,Wunderground v.1.15,2013-01-18 02:45:00,
2013-01-17 21:50:00,34.3,32.8,29.91,NNE,33,5.0,5.0,94,0.08,,,1.01,Wunderground v.1.15,2013-01-18 02:50:00,
2013-01-17 22:00:00,33.8,32.3,29.93,North,355,3.0,3.0,94,0.09,,,1.02,Wunderground v.1.15,2013-01-18 03:00:00,
2013-01-17 22:05:00,33.7,32.2,29.93,NE,39,2.0,15.0,94,0.05,,,1.02,Wunderground v.1.15,2013-01-18 03:05:00,
2013-01-17 22:10:00,33.5,32.0,29.94,NNE,31,1.0,15.0,94,0.04,,,1.02,Wunderground v.1.15,2013-01-18 03:10:00,
2013-01-17 22:15:00,33.4,31.9,29.94,NE,55,1.0,15.0,94,0.00,,,1.02,Wunderground v.1.15,2013-01-18 03:15:00,
2013-01-17 22:20:00,33.2,31.9,29.91,NE,38,2.0,15.0,95,0.00,,,1.02,Wunderground v.1.15,2013-01-18 03:20:00,
2013-01-17 22:25:00,33.1,31.8,29.91,NE,35,2.0,15.0,95,0.00,,,1.03,Wunderground v.1.15,2013-01-18 03:25:00,
2013-01-17 22:30:00,33.0,31.7,29.93,NNW,348,2.0,15.0,95,0.00,,,1.03,Wunderground v.1.15,2013-01-18 03:30:00,
2013-01-17 22:40:00,33.0,31.7,29.92,NNE,33,4.0,15.0,95,0.06,,,1.04,Wunderground v.1.15,2013-01-18 03:40:00,
2013-01-17 22:45:00,32.9,31.6,29.90,NE,56,5.0,15.0,95,0.04,,,1.04,Wunderground v.1.15,2013-01-18 03:45:00,
2013-01-17 22:50:00,32.8,31.5,29.90,ENE,71,6.0,6.0,95,0.00,,,1.05,Wunderground v.1.15,2013-01-18 03:50:00,
2013-01-17 22:55:00,32.7,31.4,29.91,North,11,6.0,15.0,95,0.00,,,1.05,Wunderground v.1.15,2013-01-18 03:55:00,
2013-01-17 23:05:00,32.7,31.4,29.92,North,355,2.0,15.0,95,0.06,,,0.00,Wunderground v.1.15,2013-01-18 04:05:00,
2013-01-17 23:10:00,32.8,31.5,29.92,North,360,3.0,15.0,95,0.07,,,0.01,Wunderground v.1.15,2013-01-18 04:10:00,
2013-01-17 23:15:00,32.8,31.5,29.92,NNW,342,3.0,15.0,95,0.07,,,0.01,Wunderground v.1.15,2013-01-18 04:15:00,
2013-01-17 23:20:00,32.9,31.6,29.94,North,355,3.0,15.0,95,0.05,,,0.02,Wunderground v.1.15,2013-01-18 04:20:00,
2013-01-17 23:25:00,33.0,31.7,29.94,NNW,332,4.0,15.0,95,0.05,,,0.02,Wunderground v.1.15,2013-01-18 04:25:00,
2013-01-17 23:35:00,33.1,31.8,29.95,North,9,2.0,15.0,95,0.04,,,0.02,Wunderground v.1.15,2013-01-18 04:35:00,
2013-01-17 23:40:00,33.1,31.8,29.95,NNE,12,2.0,2.0,95,0.00,,,0.02,Wunderground v.1.15,2013-01-18 04:40:00,
2013-01-17 23:45:00,33.2,31.9,29.96,NNW,333,2.0,4.0,95,0.00,,,0.03,Wunderground v.1.15,2013-01-18 04:45:00,
2013-01-17 23:50:00,33.2,31.9,29.97,NNW,338,2.0,15.0,95,0.00,,,0.03,Wunderground v.1.15,2013-01-18 04:50:00,
2013-01-17 23:55:00,33.3,32.0,29.98,NNW,333,3.0,15.0,95,0.00,,,0.03,Wunderground v.1.15,2013-01-18 04:55:00,